Location: Beaurecueil
(43.5122°N, 5.5450°E)
Time: 00:58:20
(UTC+00:00)

Cosmos 1437 - Pass Details

Date: 18 September 2020
Orbit: 365 x 369 km, 81.2° (Epoch: 26 October)

Event Time Altitude Azimuth Distance (km) Brightness Sun altitude
Rises 18:06:47 0° 359° (N) 2,257 6.6 -5.3°
Reaches altitude 10° 18:08:55 10° 10° (N) 1,400 5.4 -5.7°
Maximum altitude 18:11:41 32° 75° (ENE) 685 3.3 -6.2°
Drops below altitude 10° 18:14:26 10° 141° (SE) 1,387 4.9 -6.7°
Enters shadow 18:17:13 -2° 154° (SSE) 2,522 6.4 -7.2°
